TSO424 UHWW-ULLI

Flight info

Callsign TSO424
Flight time N/A
Altitude 31000
Route DOLMA2F DOLMA B356 TD B355 HAB/K0895F320 L168 LEBNA T541 MOKIT/K0913F340 T541 TURMA G719 THN N742 BURIB/K0907F360 N742 UHT T816 AMDEN P979 BEPOL BEPOL1W
Aircraft B744/H-SDE3FGHIM1M2RWXY/LB1

Departure

Time 2026-05-09 06:55
Airport Vladivostok International Airport (UHWW)

Arrival

Time N/A
Airport Pulkovo Airport (ULLI)
Time Latitude Longitude Altitude Speed Heading
2026-05-09 06:27 43.39667 132.16333 56 ft 0 kts 151°
2026-05-09 06:42 43.39681 132.16323 55 ft 2 kts 151°
2026-05-09 06:42 43.39695 132.16313 55 ft 2 kts 151°
2026-05-09 06:43 43.39709 132.16302 55 ft 2 kts 151°
2026-05-09 06:43 43.39721 132.16290 55 ft 2 kts 131°
2026-05-09 06:43 43.39729 132.16273 56 ft 2 kts 115°
2026-05-09 06:43 43.39734 132.16255 56 ft 2 kts 110°
2026-05-09 06:44 43.39740 132.16237 56 ft 2 kts 121°
2026-05-09 06:44 43.39748 132.16224 56 ft 2 kts 140°
2026-05-09 06:44 43.39758 132.16213 56 ft 2 kts 143°
2026-05-09 06:44 43.39771 132.16200 56 ft 2 kts 147°
2026-05-09 06:45 43.39784 132.16189 56 ft 2 kts 151°
2026-05-09 06:45 43.39789 132.16186 55 ft 0 kts 154°
2026-05-09 06:49 43.39788 132.16186 55 ft 1 kts 154°
2026-05-09 06:49 43.39762 132.16207 55 ft 6 kts 140°
2026-05-09 06:49 43.39749 132.16255 55 ft 6 kts 87°
2026-05-09 06:50 43.39755 132.16306 55 ft 5 kts 69°
2026-05-09 06:50 43.39773 132.16350 56 ft 5 kts 59°
2026-05-09 06:50 43.39794 132.16399 56 ft 7 kts 60°
2026-05-09 06:50 43.39824 132.16472 55 ft 10 kts 60°
2026-05-09 06:51 43.39865 132.16569 55 ft 13 kts 60°
2026-05-09 06:51 43.39914 132.16691 55 ft 15 kts 61°
2026-05-09 06:51 43.39968 132.16827 56 ft 17 kts 62°
2026-05-09 06:51 43.40023 132.16967 55 ft 16 kts 61°
2026-05-09 06:52 43.40073 132.17075 55 ft 12 kts 30°
2026-05-09 06:52 43.40148 132.17061 56 ft 11 kts 330°
2026-05-09 06:52 43.40214 132.17009 56 ft 11 kts 330°
2026-05-09 06:52 43.40278 132.16960 55 ft 10 kts 331°
2026-05-09 06:53 43.40339 132.16915 56 ft 10 kts 331°
2026-05-09 06:53 43.40397 132.16871 56 ft 9 kts 332°
2026-05-09 06:53 43.40431 132.16803 56 ft 9 kts 271°
2026-05-09 06:53 43.40405 132.16726 55 ft 10 kts 241°
2026-05-09 06:54 43.40360 132.16612 55 ft 25 kts 241°
2026-05-09 06:54 43.40178 132.16163 56 ft 83 kts 242°
2026-05-09 06:54 43.39803 132.15234 56 ft 139 kts 241°
2026-05-09 06:54 43.39246 132.13847 77 ft 188 kts 242°
2026-05-09 06:55 43.38600 132.12263 740 ft 184 kts 242°
2026-05-09 06:55 43.38000 132.10754 1568 ft 181 kts 243°
2026-05-09 06:55 43.37394 132.09246 2040 ft 181 kts 243°
2026-05-09 06:55 43.36765 132.07700 2170 ft 191 kts 243°
2026-05-09 06:56 43.36099 132.06065 2319 ft 200 kts 243°
2026-05-09 06:56 43.35407 132.04363 2406 ft 212 kts 243°
2026-05-09 06:56 43.34684 132.02541 2505 ft 221 kts 248°
2026-05-09 06:56 43.34444 132.00464 2558 ft 224 kts 279°
2026-05-09 06:57 43.35088 131.98527 2691 ft 230 kts 309°
2026-05-09 06:57 43.36434 131.97289 2799 ft 241 kts 339°
2026-05-09 06:57 43.38125 131.97142 2985 ft 251 kts
2026-05-09 06:57 43.39738 131.98084 3301 ft 255 kts 28°
2026-05-09 06:58 43.41128 131.99611 3666 ft 257 kts 39°
2026-05-09 06:58 43.42382 132.01377 4030 ft 258 kts 44°
2026-05-09 06:58 43.43565 132.03249 4447 ft 260 kts 46°
2026-05-09 06:58 43.44726 132.05180 4860 ft 262 kts 47°
2026-05-09 06:59 43.45894 132.07108 5317 ft 264 kts 46°
2026-05-09 06:59 43.47085 132.09042 5789 ft 265 kts 46°
2026-05-09 06:59 43.48268 132.10939 6316 ft 265 kts 45°
2026-05-09 06:59 43.49489 132.12881 6706 ft 270 kts 45°
2026-05-09 07:00 43.50712 132.14814 7279 ft 267 kts 45°
2026-05-09 07:00 43.51940 132.16749 7747 ft 268 kts 45°
2026-05-09 07:00 43.53173 132.18691 8165 ft 272 kts 45°
2026-05-09 07:00 43.54434 132.20674 8557 ft 276 kts 45°
2026-05-09 07:01 43.55711 132.22676 8955 ft 281 kts 45°
2026-05-09 07:01 43.57005 132.24710 9451 ft 280 kts 44°
2026-05-09 07:01 43.58291 132.26728 9966 ft 280 kts 44°
2026-05-09 07:01 43.59594 132.28777 10252 ft 291 kts 44°
2026-05-09 07:02 43.60946 132.30958 10374 ft 307 kts 45°
2026-05-09 07:02 43.62365 132.33256 10519 ft 322 kts 45°
2026-05-09 07:02 43.63857 132.35666 10672 ft 338 kts 45°
2026-05-09 07:02 43.65424 132.38195 10818 ft 355 kts 45°
2026-05-09 07:03 43.67069 132.40853 11006 ft 371 kts 45°
2026-05-09 07:03 43.68755 132.43586 11552 ft 376 kts 45°
2026-05-09 07:03 43.70430 132.46309 12244 ft 377 kts 45°
2026-05-09 07:03 43.72141 132.49102 12781 ft 384 kts 45°
2026-05-09 07:04 43.73869 132.51934 13363 ft 388 kts 45°
2026-05-09 07:04 43.75611 132.54807 13997 ft 391 kts 45°
2026-05-09 07:04 43.77355 132.57733 14623 ft 395 kts 45°
2026-05-09 07:04 43.79138 132.60679 15167 ft 401 kts 46°
2026-05-09 07:05 43.80999 132.63553 15807 ft 400 kts 40°
2026-05-09 07:05 43.83026 132.66198 16427 ft 402 kts 38°
2026-05-09 07:05 43.85122 132.68797 16997 ft 405 kts 37°
2026-05-09 07:05 43.87245 132.71391 17595 ft 408 kts 37°
2026-05-09 07:06 43.89377 132.74007 18149 ft 412 kts 37°
2026-05-09 07:06 43.91529 132.76657 18667 ft 416 kts 37°
2026-05-09 07:06 43.93693 132.79330 19203 ft 419 kts 38°
2026-05-09 07:06 43.95880 132.82034 19742 ft 421 kts 37°
2026-05-09 07:07 43.98089 132.84714 20261 ft 424 kts 37°
2026-05-09 07:07 44.00311 132.87431 20734 ft 428 kts 37°
2026-05-09 07:07 44.02537 132.90178 21309 ft 428 kts 38°
2026-05-09 07:07 44.04772 132.92954 21765 ft 432 kts 38°
2026-05-09 07:08 44.07022 132.95757 22203 ft 435 kts 38°
2026-05-09 07:08 44.09284 132.98578 22636 ft 438 kts 38°
2026-05-09 07:08 44.11561 133.01422 23057 ft 442 kts 38°
2026-05-09 07:08 44.13854 133.04287 23531 ft 443 kts 38°
2026-05-09 07:09 44.16157 133.07167 23954 ft 446 kts 38°
2026-05-09 07:09 44.18481 133.10070 24349 ft 449 kts 38°
2026-05-09 07:09 44.20849 133.12901 24751 ft 450 kts 35°
2026-05-09 07:09 44.23302 133.15541 25121 ft 451 kts 33°
2026-05-09 07:10 44.25843 133.18136 25472 ft 454 kts 33°
2026-05-09 07:10 44.28406 133.20732 25793 ft 457 kts 33°
2026-05-09 07:10 44.30980 133.23363 26133 ft 459 kts 33°
2026-05-09 07:10 44.33568 133.26026 26473 ft 461 kts 33°
2026-05-09 07:11 44.36150 133.28694 26796 ft 462 kts 33°
2026-05-09 07:11 44.38744 133.31382 27073 ft 465 kts 33°
2026-05-09 07:11 44.41341 133.34079 27455 ft 464 kts 33°
2026-05-09 07:11 44.43903 133.36743 27879 ft 462 kts 33°
2026-05-09 07:12 44.46476 133.39422 28284 ft 461 kts 33°
2026-05-09 07:12 44.49054 133.42089 28670 ft 460 kts 33°
2026-05-09 07:12 44.51631 133.44740 29019 ft 459 kts 33°
2026-05-09 07:12 44.54191 133.47389 29374 ft 458 kts 33°
2026-05-09 07:13 44.56752 133.50052 29736 ft 457 kts 33°
2026-05-09 07:13 44.59305 133.52713 30056 ft 456 kts 33°
2026-05-09 07:13 44.61853 133.55374 30316 ft 457 kts 34°
2026-05-09 07:13 44.64403 133.58042 30572 ft 457 kts 34°
2026-05-09 07:14 44.66957 133.60701 30787 ft 458 kts 33°
2026-05-09 07:14 44.69526 133.63368 30824 ft 458 kts 33°
2026-05-09 07:14 44.74650 133.68749 30809 ft 460 kts 34°
2026-05-09 07:15 44.79769 133.74157 30816 ft 459 kts 34°
2026-05-09 07:15 44.84879 133.79567 30814 ft 459 kts 34°
2026-05-09 07:16 44.89989 133.84982 30812 ft 459 kts 34°
2026-05-09 07:16 44.95107 133.90283 30810 ft 458 kts 32°
2026-05-09 07:17 45.00336 133.95440 30808 ft 457 kts 32°
2026-05-09 07:17 45.05542 134.00625 30806 ft 457 kts 33°
2026-05-09 07:18 45.10763 134.05854 30804 ft 461 kts 33°
2026-05-09 07:18 45.15983 134.11101 30802 ft 460 kts 33°
2026-05-09 07:19 45.21205 134.16342 30799 ft 459 kts 33°
2026-05-09 07:19 45.26435 134.21555 30794 ft 459 kts 33°
2026-05-09 07:20 45.31649 134.26798 30788 ft 459 kts 33°
2026-05-09 07:20 45.36860 134.32061 30787 ft 459 kts 33°
2026-05-09 07:21 45.42035 134.37304 30784 ft 459 kts 33°
2026-05-09 07:21 45.47237 134.42587 30782 ft 460 kts 33°
2026-05-09 07:22 45.52443 134.47888 30779 ft 460 kts 33°
2026-05-09 07:22 45.57656 134.53207 30777 ft 460 kts 33°
2026-05-09 07:23 45.62866 134.58536 30772 ft 460 kts 33°
2026-05-09 07:23 45.68086 134.63842 30768 ft 461 kts 33°
2026-05-09 07:24 45.73300 134.69202 30765 ft 461 kts 34°
2026-05-09 07:24 45.78463 134.74537 30763 ft 461 kts 34°
2026-05-09 07:25 45.83672 134.79933 30761 ft 462 kts 34°
2026-05-09 07:25 45.89038 134.84937 30755 ft 460 kts 20°
2026-05-09 07:26 45.95230 134.87183 30756 ft 459 kts
2026-05-09 07:26 46.01560 134.88265 30745 ft 458 kts
2026-05-09 07:27 46.07910 134.89014 30741 ft 456 kts
2026-05-09 07:27 46.14254 134.89820 30740 ft 457 kts
2026-05-09 07:28 46.20549 134.90649 30738 ft 457 kts
2026-05-09 07:28 46.26896 134.91488 30736 ft 458 kts
2026-05-09 07:29 46.32218 134.92194 30734 ft 458 kts
2026-05-09 07:29 46.38556 134.93041 30733 ft 458 kts
2026-05-09 07:30 46.44898 134.93892 30731 ft 458 kts
2026-05-09 07:30 46.51254 134.94744 30729 ft 458 kts
2026-05-09 07:31 46.57600 134.95596 30727 ft 458 kts
2026-05-09 07:31 46.63947 134.96456 30725 ft 457 kts
2026-05-09 07:32 46.70294 134.97319 30724 ft 457 kts
2026-05-09 07:32 46.76634 134.98182 30721 ft 457 kts
2026-05-09 07:33 46.86144 134.99438 30719 ft 457 kts
2026-05-09 07:34 46.92448 135.00215 30719 ft 457 kts
2026-05-09 07:34 46.98788 135.01003 30716 ft 457 kts
2026-05-09 07:35 47.05132 135.01796 30715 ft 457 kts
2026-05-09 07:35 47.11477 135.02592 30714 ft 457 kts
2026-05-09 07:36 47.17822 135.03385 30712 ft 457 kts
2026-05-09 07:36 47.24158 135.04175 30711 ft 457 kts
2026-05-09 07:37 47.30483 135.04969 30710 ft 456 kts
2026-05-09 07:37 47.36807 135.05767 30709 ft 456 kts
2026-05-09 07:38 47.43127 135.06567 30708 ft 456 kts
2026-05-09 07:38 47.49458 135.07368 30707 ft 456 kts
2026-05-09 07:39 47.55780 135.08167 30706 ft 456 kts
2026-05-09 07:39 47.62071 135.08970 30705 ft 456 kts
2026-05-09 07:40 47.68416 135.09783 30704 ft 457 kts
2026-05-09 07:40 47.74750 135.10596 30703 ft 457 kts
2026-05-09 07:41 47.81082 135.11410 30702 ft 457 kts
2026-05-09 07:41 47.87429 135.12234 30702 ft 457 kts
2026-05-09 07:42 47.93756 135.13059 30701 ft 457 kts
2026-05-09 07:42 48.00094 135.13882 30701 ft 457 kts
2026-05-09 07:43 48.06358 135.14695 30700 ft 453 kts
2026-05-09 07:43 48.12624 135.15511 30699 ft 451 kts
2026-05-09 07:44 48.18883 135.16328 30700 ft 451 kts
2026-05-09 07:44 48.25155 135.17140 30931 ft 453 kts
2026-05-09 07:44 48.28305 135.17548 31134 ft 454 kts
2026-05-09 07:45 48.31446 135.17958 31404 ft 454 kts
2026-05-09 07:45 48.34600 135.18372 31637 ft 454 kts
2026-05-09 07:45 48.37745 135.18786 31715 ft 453 kts
2026-05-09 07:46 48.44044 135.19617 31699 ft 454 kts
2026-05-09 07:46 48.50344 135.20289 31682 ft 453 kts 356°
2026-05-09 07:46 48.53434 135.19338 31700 ft 455 kts 341°
2026-05-09 07:47 48.56247 135.17161 31703 ft 458 kts 329°
2026-05-09 07:47 48.61417 135.11543 31698 ft 461 kts 324°
2026-05-09 07:48 48.66233 135.05133 31699 ft 462 kts 320°
2026-05-09 07:48 48.70978 134.98573 31699 ft 461 kts 322°
2026-05-09 07:49 48.75749 134.92074 31700 ft 461 kts 321°
2026-05-09 07:49 48.80497 134.85527 31700 ft 461 kts 321°
2026-05-09 07:50 48.85225 134.78982 31700 ft 460 kts 321°
2026-05-09 07:50 48.89950 134.72434 31700 ft 459 kts 321°
2026-05-09 07:51 48.94678 134.65884 31700 ft 458 kts 322°
2026-05-09 07:51 48.99395 134.59366 31701 ft 458 kts 321°
2026-05-09 07:52 49.04070 134.52848 31701 ft 457 kts 322°
2026-05-09 07:52 49.08840 134.46431 31703 ft 454 kts 326°
2026-05-09 07:53 49.14001 134.40949 31702 ft 451 kts 330°
2026-05-09 07:53 49.19263 134.35729 31702 ft 449 kts 330°
2026-05-09 07:54 49.24495 134.30504 31703 ft 449 kts 330°
2026-05-09 07:54 49.29654 134.25259 31704 ft 448 kts 330°
2026-05-09 07:55 49.34826 134.19954 31704 ft 446 kts 330°
2026-05-09 07:55 49.39977 134.14654 31705 ft 445 kts 330°
2026-05-09 07:56 49.45137 134.09340 31705 ft 445 kts 330°
2026-05-09 07:56 49.50275 134.04052 31707 ft 444 kts 331°
2026-05-09 07:57 49.55413 133.98772 31707 ft 444 kts 331°
2026-05-09 07:57 49.60546 133.93476 31708 ft 443 kts 331°
2026-05-09 07:58 49.65675 133.88169 31708 ft 443 kts 331°
2026-05-09 07:58 49.70781 133.82871 31709 ft 443 kts 331°
2026-05-09 07:59 49.75882 133.77570 31710 ft 441 kts 331°
2026-05-09 07:59 49.81004 133.72310 31710 ft 442 kts 331°
2026-05-09 08:00 49.86130 133.67044 31711 ft 442 kts 331°
2026-05-09 08:00 49.91207 133.61746 31712 ft 442 kts 331°
2026-05-09 08:01 49.96305 133.56388 31713 ft 443 kts 331°
2026-05-09 08:01 50.01414 133.51003 31714 ft 443 kts 331°
2026-05-09 08:02 50.06504 133.45634 31714 ft 442 kts 331°
2026-05-09 08:02 50.11588 133.40230 31715 ft 442 kts 330°
2026-05-09 08:03 50.16657 133.34777 31715 ft 443 kts 330°
2026-05-09 08:03 50.21736 133.29294 31716 ft 444 kts 330°
2026-05-09 08:04 50.26812 133.23795 31717 ft 444 kts 330°
2026-05-09 08:04 50.31901 133.18268 31717 ft 444 kts 330°
2026-05-09 08:05 50.36987 133.12732 31719 ft 445 kts 330°
2026-05-09 08:05 50.42070 133.07280 31719 ft 446 kts 330°
2026-05-09 08:06 50.47183 133.01744 31720 ft 446 kts 330°
2026-05-09 08:06 50.52291 132.96176 31721 ft 447 kts 330°
2026-05-09 08:07 50.57396 132.90590 31720 ft 447 kts 330°
2026-05-09 08:07 50.62500 132.84987 31704 ft 448 kts 330°
2026-05-09 08:08 50.67611 132.79359 31704 ft 448 kts 330°
2026-05-09 08:08 50.71861 132.74669 31704 ft 448 kts 330°
2026-05-09 08:09 50.76969 132.69017 31704 ft 448 kts 330°
2026-05-09 08:09 50.82088 132.63337 31704 ft 448 kts 330°
2026-05-09 08:10 50.87163 132.57691 31705 ft 449 kts 330°
2026-05-09 08:10 50.92266 132.51997 31705 ft 449 kts 330°
2026-05-09 08:11 50.97403 132.46314 31705 ft 449 kts 330°
2026-05-09 08:11 51.02515 132.40575 31705 ft 449 kts 329°
2026-05-09 08:12 51.10164 132.31931 31705 ft 449 kts 329°
2026-05-09 08:12 51.15233 132.26188 31707 ft 449 kts 329°
2026-05-09 08:13 51.20317 132.20392 31705 ft 449 kts 328°